Home > Weather > Rawaki > Past weeks

Flag for Kiribati Weather for the Past 2 Weeks in Rawaki, Phoenix Islands, Kiribati

Now
90 °F

Passing clouds.


Feels Like: 105 °F
Forecast: 81 / 87 °F
Wind: 9 mph from Northeast

Location: Faleolo Intl / Apia

Current Time: Feb 14, 2016 at 12:49:44 PM

Latest Report: Feb 14, 2016 at 11:00 AM


Visibility: N/A

Pressure: 29.80 "Hg

Humidity: 71%

Dew point: 79 °F

Location of RawakiLocation

Historic Weather in Rawaki — Graph

°F

Rawaki Temperature Yesterday

Maximum temperature yesterday: 91 °F (at 11:00 AM)
Minimum temperature yesterday: 63 °F (at 12:00 AM)
Average temperature yesterday: 83 °F

High & Low Weather Summary for the Past Weeks

 TemperatureHumidityPressure
High93 °F (Feb 11, 3:00 PM)100% (Jan 31, 5:00 AM)29.89 "Hg (Jan 31, 5:00 AM)
Low63 °F (Feb 13, 12:00 AM)56% (Feb 6, 12:00 PM)29.65 "Hg (Feb 6, 3:00 PM)
Average83 °F81%29.80 "Hg
* Reported Jan 30 11:00 AM — Feb 14 11:00 AM, Rawaki, Weather by CustomWeather, © 2016

Note: Actual official high and low records may vary slightly from our data, if they occured in-between our weather recording intervals... More about our weather records

Advertising

Rawaki Weather History for the Previous 24 Hours

 ConditionsComfort  
Time TempWeatherWind HumidityBarometerVisibility
11:00 AM
Sun, Feb 14
90 °FPassing clouds.9 mph71%29.80 "HgN/A
10:00 AM88 °FPassing clouds.7 mph75%29.80 "HgN/A
9:00 AM86 °FPassing clouds.5 mph75%29.83 "HgN/A
8:00 AM82 °FPassing clouds.No wind89%29.83 "HgN/A
7:00 AM77 °FPassing clouds.No wind94%29.80 "HgN/A
6:00 AM75 °FPassing clouds.3 mph100%29.80 "HgN/A
5:00 AM77 °FPassing clouds.3 mph94%29.77 "HgN/A
4:00 AM77 °FPassing clouds.No wind94%29.77 "HgN/A
3:00 AM77 °FPassing clouds.No wind94%29.77 "HgN/A
2:00 AM77 °FPassing clouds.3 mph94%29.80 "HgN/A
1:00 AM77 °FPassing clouds.3 mph94%29.80 "HgN/A
12:00 AM79 °FPassing clouds.3 mph94%29.83 "HgN/A
11:00 PM
Sat, Feb 13
79 °FPassing clouds.No wind94%29.83 "HgN/A
9:00 PM81 °FPassing clouds.No wind89%29.83 "HgN/A
8:00 PM81 °FPassing clouds.No wind89%29.80 "HgN/A
7:00 PM84 °FPassing clouds.No wind84%29.77 "HgN/A
6:00 PM88 °FPassing clouds.8 mph75%29.77 "HgN/A
5:00 PM91 °FPassing clouds.18 mph67%29.74 "HgN/A
4:00 PM91 °FScattered clouds.20 mph67%29.74 "HgN/A
3:00 PM90 °FScattered clouds.17 mph71%29.74 "HgN/A
2:00 PM86 °FScattered clouds.16 mph79%29.74 "HgN/A
1:00 PM91 °FScattered clouds.17 mph67%29.77 "HgN/A
12:00 PM91 °FScattered clouds.17 mph63%29.77 "HgN/A
Weather by CustomWeather, © 2016

See weather overviewHow to use our weather pages